Highgate, VT

12:05 AM EDT on June 29, 2017 (GMT -0400)
Franklin County State

Weather History for KFSO - November, 2013

Change the Weather History Date:

Sunday, November 24, 2013

  Actual Average (KPBG) Record (KPBG)
Temperature  
Mean Temperature 19 °F -  
Max Temperature 23 °F 41 °F 67 °F (2014)
Min Temperature 15 °F 28 °F 6 °F (1989)
Degree Days  
Heating Degree Days 46    
Moisture  
Dew Point 6 °F    
Average Humidity 57    
Maximum Humidity 80    
Minimum Humidity 38    
Precipitation  
Precipitation 0.00 in - - ()
Sea Level Pressure  
Sea Level Pressure 30.05 in    
Wind  
Wind Speed 10 mph (WNW)    
Max Wind Speed 16 mph    
Max Gust Speed 32 mph    
Visibility 9 miles    
Events Snow    
Averages and records for this station are not official NWS values.
T = Trace of Precipitation, MM = Missing Value Source: NWS Daily Summary

Daily Weather History Graph

Daily Weather History Graph

Search for Another Location

Airport or City:

Trip Planner

Search our weather history database for the weather conditions in past years. The results will help you decide how hot, cold, wet, or windy it might be!

Date:

Astronomy

Nov. 24, 2013 Rise Set
Actual Time 7:02 AM EST 4:16 PM EST
Civil Twilight 6:29 AM EST 4:48 PM EST
Nautical Twilight 5:53 AM EST 5:24 PM EST
Astronomical Twilight 5:18 AM EST 5:59 PM EST
Moon 10:47 PM EST (11/24) 11:40 AM EST (11/24)
Length of Visible Light 10h 19m
Length of Day
9h 14m
Waning Gibbous, 61% of the Moon is Illuminated
Nov 24
Waning Gibbous
Nov 25
Last Quarter
Dec 2
New
Dec 9
First Quarter
Dec 17
Full

Hourly Weather History & Observations

Time (EST) Temp. Windchill Dew Point Humidity Pressure Visibility Wind Dir Wind Speed Gust Speed Precip Events Conditions
12:15 AM 22.5 °F 13.2 °F 10.4 °F 60% 29.87 in 10.0 mi NW 8.1 mph 18.4 mph N/A   Overcast
12:35 AM 22.6 °F 13.4 °F 9.3 °F 57% 29.87 in 10.0 mi WNW 8.1 mph 16.1 mph N/A   Overcast
12:55 AM 22.6 °F 13.4 °F 10.9 °F 61% 29.87 in 10.0 mi NW 8.1 mph - N/A   Overcast
1:15 AM 22.1 °F 11.3 °F 11.8 °F 65% 29.87 in 7.0 mi WNW 10.4 mph 18.4 mph N/A Snow Light Snow
1:35 AM 22.1 °F 10.6 °F 12.4 °F 66% 29.87 in 10.0 mi WNW 11.5 mph 17.3 mph N/A   Overcast
1:55 AM 22.1 °F 12.8 °F 10.4 °F 61% 29.87 in 10.0 mi WNW 8.1 mph - N/A   Overcast
2:15 AM 22.1 °F 11.3 °F 11.3 °F 63% 29.88 in 10.0 mi West 10.4 mph 20.7 mph N/A   Overcast
2:35 AM 21.6 °F 10.6 °F 12.2 °F 67% 29.89 in 7.0 mi WNW 10.4 mph 18.4 mph N/A   Overcast
2:55 AM 21.6 °F 13.0 °F 12.0 °F 67% 29.89 in 10.0 mi WNW 6.9 mph 19.6 mph N/A   Overcast
3:15 AM 21.6 °F 10.6 °F 11.7 °F 66% 29.90 in 5.0 mi WNW 10.4 mph 17.3 mph N/A Snow Light Snow
3:35 AM 20.8 °F 9.7 °F 14.9 °F 78% 29.90 in 1.2 mi WNW 10.4 mph 18.4 mph N/A Snow Light Snow
3:55 AM 19.4 °F 7.2 °F 14.0 °F 80% 29.90 in 1.2 mi West 11.5 mph 20.7 mph N/A Snow Light Snow
4:15 AM 18.9 °F 7.2 °F 12.9 °F 78% 29.91 in 2.5 mi WNW 10.4 mph 20.7 mph N/A Snow Light Snow
4:35 AM 18.5 °F 6.8 °F 12.4 °F 77% 29.91 in 2.0 mi WNW 10.4 mph 17.3 mph N/A Snow Light Snow
4:55 AM 18.3 °F 5.9 °F 11.8 °F 76% 29.92 in 5.0 mi West 11.5 mph 20.7 mph N/A Snow Light Snow
5:15 AM 18.3 °F 6.6 °F 10.8 °F 72% 29.92 in 5.0 mi WNW 10.4 mph 20.7 mph N/A Snow Light Snow
5:35 AM 18.9 °F 7.2 °F 10.0 °F 69% 29.93 in 10.0 mi West 10.4 mph 17.3 mph N/A   Overcast
5:55 AM 18.3 °F 10.2 °F 10.2 °F 71% 29.94 in 10.0 mi WSW 5.8 mph - N/A   Overcast
6:15 AM 19.0 °F 7.5 °F 8.4 °F 63% 29.95 in 10.0 mi WNW 10.4 mph 19.6 mph N/A   Overcast
6:35 AM 18.3 °F 9.1 °F 9.1 °F 67% 29.96 in - West 6.9 mph 18.4 mph N/A   Overcast
6:55 AM 18.3 °F 6.6 °F 9.3 °F 68% 29.97 in 10.0 mi West 10.4 mph 20.7 mph N/A   Overcast
7:15 AM 18.3 °F 5.9 °F 7.7 °F 63% 29.97 in - WNW 11.5 mph 19.6 mph N/A   Overcast
7:35 AM 18.3 °F 5.9 °F 7.2 °F 62% 29.98 in 10.0 mi WNW 11.5 mph 20.7 mph N/A   Overcast
7:55 AM 18.5 °F 9.3 °F 7.3 °F 62% 29.99 in 10.0 mi West 6.9 mph 23.0 mph N/A   Overcast
8:15 AM 18.3 °F 5.2 °F 8.6 °F 66% 30.00 in 10.0 mi WNW 12.7 mph 21.9 mph N/A   Overcast
8:35 AM 18.3 °F 6.6 °F 9.0 °F 67% 30.01 in 10.0 mi West 10.4 mph 23.0 mph N/A   Overcast
8:55 AM 18.3 °F 5.2 °F 8.6 °F 66% 30.02 in 10.0 mi WNW 12.7 mph 21.9 mph N/A   Overcast
9:15 AM 18.3 °F 4.1 °F 7.9 °F 64% 30.02 in - WNW 15.0 mph 25.3 mph N/A   Overcast
9:35 AM 18.3 °F 6.6 °F 7.3 °F 62% 30.03 in 10.0 mi West 10.4 mph 19.6 mph N/A   Mostly Cloudy
9:55 AM 18.3 °F 3.6 °F 6.8 °F 61% 30.04 in 10.0 mi WNW 16.1 mph 27.6 mph N/A   Mostly Cloudy
10:15 AM 18.3 °F 5.2 °F 6.6 °F 60% 30.04 in 10.0 mi West 12.7 mph 27.6 mph N/A   Overcast
10:35 AM 18.7 °F 4.6 °F 6.8 °F 60% 30.05 in 10.0 mi WNW 15.0 mph 26.5 mph N/A   Overcast
10:55 AM 19.4 °F 7.2 °F 7.2 °F 59% 30.04 in 10.0 mi WNW 11.5 mph 21.9 mph N/A   Overcast
11:15 AM 20.8 °F 7.3 °F 7.9 °F 57% 30.05 in 10.0 mi WNW 15.0 mph 28.8 mph N/A   Mostly Cloudy
11:35 AM 19.8 °F 9.1 °F 7.0 °F 58% 30.05 in 10.0 mi West 9.2 mph 23.0 mph N/A   Mostly Cloudy
11:55 AM 20.5 °F 9.2 °F 8.1 °F 59% 30.05 in 10.0 mi WNW 10.4 mph 24.2 mph N/A   Overcast
12:15 PM 20.8 °F 7.3 °F 8.1 °F 58% 30.04 in 10.0 mi WNW 15.0 mph 26.5 mph N/A   Mostly Cloudy
12:35 PM 20.8 °F 9.7 °F 7.7 °F 57% 30.04 in 10.0 mi West 10.4 mph 27.6 mph N/A   Mostly Cloudy
12:55 PM 20.8 °F 8.4 °F 7.7 °F 57% 30.04 in 10.0 mi West 12.7 mph 27.6 mph N/A   Mostly Cloudy
1:15 PM 21.4 °F 9.1 °F 7.9 °F 56% 30.04 in 10.0 mi WNW 12.7 mph 24.2 mph N/A   Overcast
1:35 PM 22.1 °F 12.0 °F 7.7 °F 54% 30.04 in 10.0 mi WNW 9.2 mph 24.2 mph N/A   Mostly Cloudy
1:55 PM 22.1 °F 10.0 °F 6.8 °F 52% 30.05 in 10.0 mi WNW 12.7 mph 26.5 mph N/A   Mostly Cloudy
2:15 PM 23.9 °F 14.2 °F 6.8 °F 48% 30.06 in 10.0 mi WNW 9.2 mph 26.5 mph N/A   Mostly Cloudy
2:35 PM 23.5 °F 11.3 °F 5.7 °F 47% 30.06 in 10.0 mi WNW 13.8 mph 26.5 mph N/A   Scattered Clouds
2:55 PM 23.4 °F 11.1 °F 5.4 °F 46% 30.07 in 10.0 mi WNW 13.8 mph 24.2 mph N/A   Scattered Clouds
3:15 PM 23.4 °F 12.2 °F 4.6 °F 45% 30.08 in 10.0 mi WNW 11.5 mph 25.3 mph N/A   Scattered Clouds
3:35 PM 23.5 °F 11.8 °F 2.1 °F 40% 30.08 in 10.0 mi WNW 12.7 mph 25.3 mph N/A   Clear
3:55 PM 23.2 °F 10.3 °F 3.0 °F 42% 30.09 in 10.0 mi WNW 15.0 mph 24.2 mph N/A   Clear
4:15 PM 22.1 °F 10.6 °F -0.2 °F 38% 30.10 in 10.0 mi WNW 11.5 mph 32.2 mph N/A   Clear
4:35 PM 21.6 °F 8.8 °F 0.5 °F 40% 30.11 in 10.0 mi WNW 13.8 mph 25.3 mph N/A   Scattered Clouds
4:55 PM 21.0 °F 7.6 °F -0.0 °F 40% 30.12 in 10.0 mi WNW 15.0 mph 24.2 mph N/A   Scattered Clouds
5:15 PM 20.8 °F 8.4 °F 1.0 °F 42% 30.14 in 10.0 mi WNW 12.7 mph 23.0 mph N/A   Clear
5:35 PM 20.8 °F 10.4 °F 2.3 °F 45% 30.14 in 10.0 mi WNW 9.2 mph 17.3 mph N/A   Clear
5:55 PM 20.8 °F 7.9 °F 2.3 °F 45% 30.15 in 10.0 mi WNW 13.8 mph 19.6 mph N/A   Clear
6:15 PM 19.9 °F 9.3 °F 1.4 °F 45% 30.16 in 10.0 mi WNW 9.2 mph 26.5 mph N/A   Clear
6:35 PM 19.0 °F 8.2 °F 1.0 °F 46% 30.17 in 10.0 mi WNW 9.2 mph 19.6 mph N/A   Clear
6:55 PM 19.0 °F 9.0 °F 0.5 °F 44% 30.17 in 10.0 mi WNW 8.1 mph 24.2 mph N/A   Clear
7:15 PM 18.5 °F 6.1 °F 0.9 °F 46% 30.18 in 10.0 mi West 11.5 mph 27.6 mph N/A   Clear
7:35 PM 18.3 °F 8.2 °F 0.3 °F 45% 30.19 in 10.0 mi West 8.1 mph 18.4 mph N/A   Clear
7:55 PM 18.3 °F 5.2 °F 0.7 °F 46% 30.19 in 10.0 mi West 12.7 mph 19.6 mph N/A   Clear
8:15 PM 18.3 °F 6.6 °F 0.7 °F 46% 30.20 in 10.0 mi WNW 10.4 mph 25.3 mph N/A   Clear
8:35 PM 18.3 °F 5.2 °F 1.4 °F 48% 30.20 in 10.0 mi West 12.7 mph 21.9 mph N/A   Clear
8:55 PM 17.8 °F 7.5 °F 0.9 °F 48% 30.20 in 10.0 mi WNW 8.1 mph 17.3 mph N/A   Clear
9:15 PM 17.1 °F 7.6 °F 0.3 °F 48% 30.21 in 10.0 mi West 6.9 mph 18.4 mph N/A   Clear
9:35 PM 16.7 °F 7.2 °F 0.7 °F 49% 30.21 in 10.0 mi WNW 6.9 mph 17.3 mph N/A   Clear
9:55 PM 15.8 °F 6.1 °F -0.4 °F 49% 30.22 in 10.0 mi West 6.9 mph 17.3 mph N/A   Clear
10:15 PM 15.8 °F 7.2 °F -0.6 °F 49% 30.23 in - West 5.8 mph 19.6 mph N/A   Clear
10:35 PM 15.8 °F 4.2 °F 1.2 °F 53% 30.23 in - West 9.2 mph 17.3 mph N/A   Clear
10:55 PM 15.8 °F 6.1 °F 2.5 °F 56% 30.24 in - West 6.9 mph 17.3 mph N/A   Clear
11:15 PM 15.8 °F 3.4 °F 2.5 °F 56% 30.25 in 10.0 mi West 10.4 mph 18.4 mph N/A   Clear
11:35 PM 15.8 °F 7.2 °F 2.7 °F 56% 30.26 in - West 5.8 mph - N/A   Clear
11:55 PM 15.8 °F 5.1 °F 2.5 °F 56% 30.27 in - West 8.1 mph 19.6 mph N/A   Clear